DW0345 Weather Reports


Display with metric or nautical units.
time (UTC)temp
F
wind
direction
speed
MPH
gust
MPH
rain 1hr
in
rain 24hr
in
rain mn
in
humidity
%
barometer
mb
20260505013305 62 239 6.0 11.0 0.00 0.00 0.00 59
20260505012806 62 272 6.0 14.0 0.00 0.00 0.00 59
20260505012230 62 240 9.0 14.0 0.00 0.00 0.00 59
20260505011752 62 254 8.0 14.0 0.00 0.00 0.00 60
20260505011231 62 231 7.0 13.0 0.00 0.00 0.00 59
20260505010728 63 250 6.0 13.0 0.00 0.00 0.00 59
20260505010251 63 212 5.0 15.0 0.00 0.00 0.00 59
20260505005810 63 226 8.0 15.0 0.00 0.00 0.00 59
20260505005231 63 218 5.0 11.0 0.00 0.00 0.00 60
20260505004732 63 245 6.0 11.0 0.00 0.00 0.00 60
20260505004251 63 221 5.0 11.0 0.00 0.00 0.00 60
20260505003752 63 242 4.0 11.0 0.00 0.00 0.00 60
20260505003227 63 241 5.0 11.0 0.00 0.00 0.00 60
20260505002749 63 201 5.0 10.0 0.00 0.00 0.00 60
20260505002229 63 236 5.0 14.0 0.00 0.00 0.00 60
20260505001730 63 230 8.0 15.0 0.00 0.00 0.00 60
20260505001250 64 214 8.0 15.0 0.00 0.00 0.00 59
20260505000751 64 246 4.0 12.0 0.00 0.00 0.00 59
20260505000234 64 187 5.0 14.0 0.00 0.00 0.00 57
20260504235754 65 239 7.0 14.0 0.00 0.00 0.00 56
20260504235235 64 297 5.0 13.0 0.00 0.00 0.00 56
20260504234736 64 226 6.0 12.0 0.00 0.00 0.00 57
20260504234234 64 235 6.0 14.0 0.00 0.00 0.00 58
20260504233757 63 193 6.0 14.0 0.00 0.00 0.00 59
20260504233245 63 201 7.0 12.0 0.00 0.00 0.00 59
20260504232747 63 278 5.0 11.0 0.00 0.00 0.00 59
20260504232228 64 266 4.0 11.0 0.00 0.00 0.00 60
20260504231732 64 195 6.0 11.0 0.00 0.00 0.00 59
20260504231230 64 231 6.0 11.0 0.00 0.00 0.00 59
20260504230732 64 203 3.0 12.0 0.00 0.00 0.00 59
20260504230231 64 56 4.0 13.0 0.00 0.00 0.00 58
20260504225732 64 186 6.0 13.0 0.00 0.00 0.00 57
20260504225232 65 200 6.0 12.0 0.00 0.00 0.00 56
20260504224733 64 201 5.0 10.0 0.00 0.00 0.00 56
20260504224252 64 201 5.0 10.0 0.00 0.00 0.00 56
20260504223731 65 239 4.0 16.0 0.00 0.00 0.00 55
20260504223247 65 239 6.0 16.0 0.00 0.00 0.00 54
20260504222748 65 258 6.0 11.0 0.00 0.00 0.00 53
20260504222232 65 322 4.0 11.0 0.00 0.00 0.00 53
20260504221754 66 291 6.0 11.0 0.00 0.00 0.00 52
20260504221306 66 269 5.0 10.0 0.00 0.00 0.00 52
20260504220747 66 224 7.0 13.0 0.00 0.00 0.00 51
20260504220250 66 177 6.0 16.0 0.00 0.00 0.00 50
20260504215729 66 201 8.0 18.0 0.00 0.00 0.00 49
20260504215234 66 243 5.0 15.0 0.00 0.00 0.00 49
20260504214734 66 114 6.0 14.0 0.00 0.00 0.00 50
20260504214230 66 244 7.0 14.0 0.00 0.00 0.00 49
20260504213728 66 244 7.0 14.0 0.00 0.00 0.00 49
20260504213246 66 253 3.0 12.0 0.00 0.00 0.00 52
20260504212809 66 235 4.0 9.0 0.00 0.00 0.00 51
20260504212231 66 139 3.0 9.0 0.00 0.00 0.00 51
20260504211754 67 155 4.0 13.0 0.00 0.00 0.00 50
20260504211236 67 233 6.0 13.0 0.00 0.00 0.00 48
20260504210755 68 231 4.0 9.0 0.00 0.00 0.00 41
20260504210310 68 239 4.0 11.0 0.00 0.00 0.00 46
20260504205750 69 199 6.0 11.0 0.00 0.00 0.00 44
20260504205232 71 219 3.0 10.0 0.00 0.00 0.00 38
20260504204734 70 223 5.0 10.0 0.00 0.00 0.00 39
20260504204238 69 214 2.0 9.0 0.00 0.00 0.00 44
20260504203755 68 279 3.0 11.0 0.00 0.00 0.00 45
20260504203237 69 215 6.0 10.0 0.00 0.00 0.00 43
20260504202737 69 251 5.0 10.0 0.00 0.00 0.00 44
20260504202246 68 235 3.0 7.0 0.00 0.00 0.00 48
20260504201729 68 87 4.0 7.0 0.00 0.00 0.00 48
20260504201251 67 185 4.0 8.0 0.00 0.00 0.00 50
20260504200733 67 155 2.0 14.0 0.00 0.00 0.00 43
20260504200243 67 222 9.0 14.0 0.00 0.00 0.00 42
20260504195745 68 222 6.0 12.0 0.00 0.00 0.00 42
20260504195248 68 234 6.0 15.0 0.00 0.00 0.00 42
20260504194751 68 241 8.0 15.0 0.00 0.00 0.00 42
20260504194229 68 239 3.0 8.0 0.00 0.00 0.00 43
20260504193730 68 224 4.0 9.0 0.00 0.00 0.00 43
20260504193249 67 212 5.0 11.0 0.00 0.00 0.00 44
20260504192810 67 209 6.0 13.0 0.00 0.00 0.00 45
20260504192232 67 255 4.0 11.0 0.00 0.00 0.00 45
20260504191734 67 241 5.0 8.0 0.00 0.00 0.00 45
20260504191249 66 266 4.0 8.0 0.00 0.00 0.00 47
20260504190731 66 216 4.0 12.0 0.00 0.00 0.00 46
20260504190251 66 251 5.0 12.0 0.00 0.00 0.00 46
20260504185751 66 296 3.0 8.0 0.00 0.00 0.00 46
20260504185235 67 235 4.0 7.0 0.00 0.00 0.00 46
20260504184757 67 226 3.0 10.0 0.00 0.00 0.00 45
20260504184228 67 257 5.0 10.0 0.00 0.00 0.00 44
20260504183750 67 261 2.0 8.0 0.00 0.00 0.00 46
20260504183231 67 268 5.0 8.0 0.00 0.00 0.00 44
20260504182732 67 241 3.0 8.0 0.00 0.00 0.00 46
20260504182232 67 202 4.0 8.0 0.00 0.00 0.00 46
20260504181733 66 329 2.0 11.0 0.00 0.00 0.00 47
20260504181301 65 245 4.0 11.0 0.00 0.00 0.00 49
20260504180730 65 257 4.0 10.0 0.00 0.00 0.00 48
20260504180253 65 225 5.0 7.0 0.00 0.00 0.00 48
20260504175812 66 228 4.0 8.0 0.00 0.00 0.00 47
20260504175227 65 301 3.0 9.0 0.00 0.00 0.00 48
20260504174730 65 246 4.0 9.0 0.00 0.00 0.00 49
20260504174230 65 218 4.0 10.0 0.00 0.00 0.00 48
20260504173731 65 216 3.0 8.0 0.00 0.00 0.00 49
20260504173243 65 220 5.0 9.0 0.00 0.00 0.00 49
20260504172740 64 239 5.0 8.0 0.00 0.00 0.00 50
20260504172237 63 217 5.0 10.0 0.00 0.00 0.00 50
20260504171737 63 233 6.0 10.0 0.00 0.00 0.00 51
20260504171233 64 247 2.0 8.0 0.00 0.00 0.00 51
20260504170732 64 245 5.0 9.0 0.00 0.00 0.00 50
20260504170231 65 227 5.0 9.0 0.00 0.00 0.00 51
20260504160307 62 58 3.0 8.0 0.00 0.00 0.00 56
20260504150732 58 217 2.0 4.0 0.00 0.00 0.00 70
20260504150233 57 236 1.0 4.0 0.00 0.00 0.00 73
20260504141229 54 300 2.0 5.0 0.00 0.00 0.00 79
20260504140731 54 297 3.0 5.0 0.00 0.00 0.00 79
20260504140253 54 308 1.0 5.0 0.00 0.00 0.00 79
20260504130753 54 249 0.0 0.0 0.00 0.00 0.00 78
20260504130231 55 249 0.0 0.0 0.00 0.00 0.00 78
20260504120250 55 249 0.0 0.0 0.00 0.00 0.00 76
20260504110234 56 239 2.0 4.0 0.00 0.00 0.00 75
20260504100249 56 310 2.0 3.0 0.00 0.00 0.00 75
20260504081742 55 285 0.0 0.0 0.00 0.00 0.00 76
20260504081309 55 285 0.0 0.0 0.00 0.00 0.00 76
20260504080750 55 272 0.0 0.0 0.00 0.00 0.00 75
20260504080232 55 272 0.0 0.0 0.00 0.00 0.00 75
20260504070252 55 272 0.0 2.0 0.00 0.00 0.00 76
20260504060235 57 310 3.0 5.0 0.00 0.00 0.00 75
20260504050751 58 245 3.0 7.0 0.00 0.00 0.00 73
20260504050226 58 249 4.0 7.0 0.00 0.00 0.00 73
20260504045808 58 233 3.0 6.0 0.00 0.00 0.00 72
20260504045228 58 232 3.0 4.0 0.00 0.00 0.00 72
20260504044730 58 263 0.0 4.0 0.00 0.00 0.00 72
20260504044245 58 241 1.0 4.0 0.00 0.00 0.00 72
20260504043728 58 258 0.0 3.0 0.00 0.00 0.00 71
20260504043253 58 262 1.0 4.0 0.00 0.00 0.00 71
20260504042732 58 251 2.0 4.0 0.00 0.00 0.00 71
20260504042233 58 195 2.0 3.0 0.00 0.00 0.00 71
20260504041735 58 300 0.0 2.0 0.00 0.00 0.00 71
20260504041233 58 243 1.0 2.0 0.00 0.00 0.00 71
20260504040734 58 231 1.0 2.0 0.00 0.00 0.00 71
20260504040310 58 276 1.0 5.0 0.00 0.00 0.00 71
20260504035733 58 133 3.0 5.0 0.00 0.00 0.00 71
20260504035233 58 56 1.0 3.0 0.00 0.00 0.00 72
20260504034733 58 280 0.0 2.0 0.00 0.00 0.00 72
20260504034230 58 280 1.0 4.0 0.00 0.00 0.00 72
20260504033730 58 289 0.0 7.0 0.00 0.00 0.00 71
20260504033230 58 266 2.0 8.0 0.00 0.00 0.00 71
20260504032750 58 241 4.0 7.0 0.00 0.00 0.00 71
20260504032232 58 242 3.0 7.0 0.00 0.00 0.00 70
20260504031754 58 222 2.0 5.0 0.00 0.00 0.00 69
20260504031229 58 302 2.0 8.0 0.00 0.00 0.00 69
20260504030727 59 310 1.0 10.0 0.00 0.00 0.00 69
20260504030303 59 301 5.0 10.0 0.00 0.00 0.00 68
20260504025745 59 251 2.0 10.0 0.00 0.00 0.00 68
20260504025247 59 258 3.0 7.0 0.00 0.00 0.00 67
20260504024729 59 286 2.0 6.0 0.00 0.00 0.00 67
20260504024250 60 258 2.0 8.0 0.00 0.00 0.00 67
20260504023730 60 251 3.0 8.0 0.00 0.00 0.00 66
20260504023232 60 288 4.0 8.0 0.00 0.00 0.00 65
20260504022733 60 231 2.0 6.0 0.00 0.00 0.00 64
20260504022245 61 301 3.0 8.0 0.00 0.00 0.00 63
20260504021729 61 262 3.0 8.0 0.00 0.00 0.00 63
20260504021229 62 301 1.0 9.0 0.00 0.00 0.00 62
20260504020732 62 222 4.0 7.0 0.00 0.00 0.00 62
20260504020244 62 266 3.0 9.0 0.00 0.00 0.00 62
20260504015746 63 231 3.0 9.0 0.00 0.00 0.00 61
20260504015229 63 277 2.0 8.0 0.00 0.00 0.00 61
20260504014729 63 249 1.0 10.0 0.00 0.00 0.00 60
20260504014250 63 259 6.0 10.0 0.00 0.00 0.00 58
20260504013748 63 226 5.0 9.0 0.00 0.00 0.00 57